Linden, NJ

6:05 AM EDT on September 23, 2017 (GMT -0400)
Linden

Weather History for KLDJ - February, 2014

Change the Weather History Date:

Saturday, February 8, 2014

  Actual Average (KEWR) Record (KEWR)
Temperature  
Mean Temperature 24 °F -  
Max Temperature 29 °F 37 °F 65 °F (2017)
Min Temperature 19 °F 23 °F -7 °F (1934)
Degree Days  
Heating Degree Days 41    
Moisture  
Dew Point 9 °F    
Average Humidity 51    
Maximum Humidity 66    
Minimum Humidity 34    
Precipitation  
Precipitation 0.00 in - - ()
Sea Level Pressure  
Sea Level Pressure 30.30 in    
Wind  
Wind Speed 5 mph (WNW)    
Max Wind Speed 9 mph    
Max Gust Speed -    
Visibility 10 miles    
Events      
Averages and records for this station are not official NWS values.
T = Trace of Precipitation, MM = Missing Value Source: NWS Daily Summary

Daily Weather History Graph

Daily Weather History Graph

Search for Another Location

Airport or City:

Trip Planner

Search our weather history database for the weather conditions in past years. The results will help you decide how hot, cold, wet, or windy it might be!

Date:

Astronomy

Feb. 08, 2014 Rise Set
Actual Time 6:59 AM EST 5:23 PM EST
Civil Twilight 6:30 AM EST 5:51 PM EST
Nautical Twilight 5:58 AM EST 6:24 PM EST
Astronomical Twilight 5:26 AM EST 6:56 PM EST
Moon 12:15 PM EST (2/8) 2:09 AM EST (2/8)
Length of Visible Light 11h 21m
Length of Day
10h 24m
Waxing Gibbous, 68% of the Moon is Illuminated
Feb 8
Waxing Gibbous
Feb 14
Full
Feb 22
Last Quarter
Mar 1
New
Mar 8
First Quarter

Hourly Weather History & Observations

Time (EST) Temp. Windchill Dew Point Humidity Pressure Visibility Wind Dir Wind Speed Gust Speed Precip Events Conditions
12:15 AM 26.1 °F 17.6 °F 12.4 °F 56% 30.33 in 10.0 mi WNW 8.1 mph - N/A   Clear
12:35 AM 26.4 °F 18.9 °F 11.7 °F 54% 30.33 in 10.0 mi WNW 6.9 mph - N/A   Clear
12:55 AM 25.9 °F 17.4 °F 10.9 °F 53% 30.33 in 10.0 mi WNW 8.1 mph - N/A   Clear
1:15 AM 23.9 °F 15.8 °F 11.1 °F 58% 30.33 in 10.0 mi NW 6.9 mph - N/A   Clear
1:35 AM 24.4 °F 14.9 °F 10.2 °F 55% 30.33 in 10.0 mi WNW 9.2 mph - N/A   Clear
1:55 AM 24.3 °F 16.3 °F 9.7 °F 54% 30.33 in 10.0 mi WNW 6.9 mph - N/A   Clear
2:15 AM 24.6 °F 17.7 °F 9.0 °F 51% 30.34 in 10.0 mi WNW 5.8 mph - N/A   Clear
2:35 AM 23.5 °F 19.1 °F 8.6 °F 53% 30.34 in 10.0 mi WNW 3.5 mph - N/A   Clear
2:55 AM 22.8 °F 16.7 °F 8.2 °F 54% 30.34 in 10.0 mi WNW 4.6 mph - N/A   Clear
3:15 AM 23.7 °F 19.3 °F 7.7 °F 51% 30.35 in 10.0 mi West 3.5 mph - N/A   Clear
3:35 AM 23.7 °F 19.3 °F 6.8 °F 49% 30.35 in 10.0 mi WNW 3.5 mph - N/A   Clear
3:55 AM 21.9 °F 17.2 °F 7.0 °F 53% 30.35 in 10.0 mi WNW 3.5 mph - N/A   Clear
4:15 AM 23.2 °F - 6.8 °F 50% 30.36 in 10.0 mi Calm Calm - N/A   Clear
4:35 AM 22.6 °F 18.0 °F 6.8 °F 51% 30.36 in 10.0 mi West 3.5 mph - N/A   Clear
4:55 AM 23.0 °F 18.4 °F 7.0 °F 50% 30.37 in 10.0 mi West 3.5 mph - N/A   Clear
5:15 AM 22.5 °F 17.8 °F 7.5 °F 53% 30.37 in 10.0 mi West 3.5 mph - N/A   Clear
5:35 AM 22.6 °F 16.5 °F 7.2 °F 52% 30.36 in 10.0 mi West 4.6 mph - N/A   Clear
5:55 AM 19.9 °F 13.4 °F 7.5 °F 59% 30.36 in 10.0 mi WNW 4.6 mph - N/A   Clear
6:15 AM 19.9 °F 14.9 °F 7.7 °F 59% 30.36 in 10.0 mi WNW 3.5 mph - N/A   Clear
6:35 AM 21.2 °F 14.9 °F 7.7 °F 56% 30.36 in 10.0 mi West 4.6 mph - N/A   Clear
6:55 AM 19.8 °F 13.2 °F 8.4 °F 61% 30.36 in 10.0 mi WNW 4.6 mph - N/A   Clear
7:15 AM 19.8 °F 13.2 °F 8.8 °F 62% 30.36 in 10.0 mi NW 4.6 mph - N/A   Clear
7:35 AM 20.1 °F 15.2 °F 9.1 °F 62% 30.36 in 10.0 mi NW 3.5 mph - N/A   Clear
7:55 AM 21.4 °F - 8.6 °F 58% 30.37 in 10.0 mi Calm Calm - N/A   Clear
8:15 AM 21.9 °F - 8.8 °F 57% 30.37 in 10.0 mi Calm Calm - N/A   Clear
8:35 AM 21.2 °F 16.4 °F 8.1 °F 57% 30.37 in 10.0 mi WNW 3.5 mph - N/A   Clear
8:55 AM 22.1 °F - 8.1 °F 55% 30.38 in 10.0 mi Calm Calm - N/A   Clear
9:15 AM 22.1 °F - 7.2 °F 53% 30.38 in 10.0 mi Calm Calm - N/A   Clear
9:35 AM 23.5 °F 17.6 °F 2.7 °F 41% 30.38 in 10.0 mi North 4.6 mph - N/A   Clear
9:55 AM 23.7 °F 16.6 °F 3.9 °F 43% 30.37 in 10.0 mi NNW 5.8 mph - N/A   Clear
10:15 AM 24.8 °F 19.1 °F 3.6 °F 40% 30.37 in 10.0 mi NW 4.6 mph - N/A   Clear
10:35 AM 25.0 °F 19.3 °F 2.3 °F 38% 30.37 in 10.0 mi NNW 4.6 mph - N/A   Clear
10:55 AM 26.2 °F 17.8 °F 3.0 °F 37% 30.35 in 10.0 mi NW 8.1 mph - N/A   Clear
11:15 AM 26.8 °F 21.4 °F 2.5 °F 35% 30.33 in 10.0 mi NNW 4.6 mph - N/A   Clear
11:35 AM 27.7 °F - 3.2 °F 35% 30.32 in 10.0 mi Calm Calm - N/A   Clear
11:55 AM 27.1 °F 23.2 °F 3.4 °F 36% 30.32 in 10.0 mi NW 3.5 mph - N/A   Scattered Clouds
12:15 PM 27.5 °F - 4.5 °F 37% 30.32 in 10.0 mi Calm Calm - N/A   Mostly Cloudy
12:35 PM 28.0 °F - 2.7 °F 34% 30.31 in 10.0 mi Calm Calm - N/A   Mostly Cloudy
12:55 PM 28.8 °F 25.0 °F 4.5 °F 36% 30.28 in 10.0 mi NW 3.5 mph - N/A   Mostly Cloudy
1:15 PM 28.9 °F 25.2 °F 5.5 °F 37% 30.28 in 10.0 mi NW 3.5 mph - N/A   Overcast
1:35 PM 28.6 °F 23.5 °F 5.0 °F 37% 30.27 in 10.0 mi NW 4.6 mph - N/A   Mostly Cloudy
1:55 PM 28.8 °F - 4.8 °F 36% 30.26 in 10.0 mi Calm Calm - N/A   Mostly Cloudy
2:15 PM 29.3 °F 25.6 °F 6.1 °F 37% 30.28 in 10.0 mi West 3.5 mph - N/A   Overcast
2:35 PM 29.3 °F 24.3 °F 6.1 °F 37% 30.27 in 10.0 mi West 4.6 mph - N/A   Overcast
2:55 PM 29.7 °F 22.8 °F 7.0 °F 38% 30.28 in 10.0 mi West 6.9 mph - N/A   Overcast
3:15 PM 29.7 °F 22.8 °F 8.1 °F 40% 30.29 in 10.0 mi West 6.9 mph - N/A   Overcast
3:35 PM 29.8 °F 23.9 °F 7.2 °F 38% 30.28 in 10.0 mi WSW 5.8 mph - N/A   Overcast
3:55 PM 29.3 °F 22.3 °F 7.5 °F 40% 30.27 in 10.0 mi West 6.9 mph - N/A   Overcast
4:15 PM 29.1 °F 22.1 °F 7.5 °F 40% 30.27 in 10.0 mi West 6.9 mph - N/A   Overcast
4:35 PM 28.9 °F 23.9 °F 9.1 °F 43% 30.26 in 10.0 mi West 4.6 mph - N/A   Overcast
4:55 PM 28.6 °F 23.5 °F 11.3 °F 48% 30.25 in 10.0 mi West 4.6 mph - N/A   Overcast
5:15 PM 28.4 °F 23.3 °F 12.2 °F 51% 30.25 in 10.0 mi West 4.6 mph - N/A   Overcast
5:35 PM 28.2 °F - 11.3 °F 49% 30.24 in 10.0 mi Calm Calm - N/A   Mostly Cloudy
5:55 PM 27.9 °F 24.0 °F 12.9 °F 54% 30.23 in 10.0 mi West 3.5 mph - N/A   Scattered Clouds
6:15 PM 27.9 °F 24.0 °F 11.7 °F 51% 30.23 in 10.0 mi West 3.5 mph - N/A   Clear
6:35 PM 27.5 °F 22.2 °F 12.4 °F 53% 30.23 in 10.0 mi West 4.6 mph - N/A   Scattered Clouds
6:55 PM 27.5 °F 19.3 °F 13.3 °F 55% 30.23 in 10.0 mi West 8.1 mph - N/A   Mostly Cloudy
7:15 PM 27.3 °F 18.4 °F 14.0 °F 57% 30.22 in 10.0 mi WNW 9.2 mph - N/A   Overcast
7:35 PM 27.0 °F 18.0 °F 14.9 °F 60% 30.22 in 10.0 mi WNW 9.2 mph - N/A   Overcast
7:55 PM 27.0 °F 19.5 °F 16.0 °F 63% 30.21 in 10.0 mi WNW 6.9 mph - N/A   Overcast
8:15 PM 27.1 °F 20.7 °F 16.0 °F 63% 30.21 in 10.0 mi WNW 5.8 mph - N/A   Overcast
8:35 PM 26.6 °F 20.0 °F 15.6 °F 63% 30.20 in 10.0 mi WNW 5.8 mph - N/A   Overcast
8:55 PM 26.4 °F 18.9 °F 14.7 °F 61% 30.19 in 10.0 mi WNW 6.9 mph - N/A   Overcast
9:15 PM 26.2 °F 18.6 °F 14.9 °F 62% 30.19 in 10.0 mi WNW 6.9 mph - N/A   Mostly Cloudy
9:35 PM 26.1 °F 19.4 °F 14.9 °F 63% 30.20 in 10.0 mi West 5.8 mph - N/A   Scattered Clouds
9:55 PM 26.1 °F 17.6 °F 15.4 °F 64% 30.20 in 10.0 mi WNW 8.1 mph - N/A   Scattered Clouds
10:15 PM 25.5 °F 16.9 °F 15.6 °F 66% 30.19 in 10.0 mi WNW 8.1 mph - N/A   Mostly Cloudy
10:35 PM 25.5 °F 17.8 °F 15.4 °F 66% 30.19 in 10.0 mi WNW 6.9 mph - N/A   Overcast
10:55 PM 26.2 °F 20.7 °F 15.6 °F 64% 30.19 in 10.0 mi WNW 4.6 mph - N/A   Overcast
11:15 PM 25.9 °F 17.4 °F 14.9 °F 63% 30.19 in 10.0 mi WNW 8.1 mph - N/A   Overcast
11:35 PM 25.5 °F 16.9 °F 14.5 °F 63% 30.19 in 10.0 mi WNW 8.1 mph - N/A   Scattered Clouds
11:55 PM 25.2 °F 18.3 °F 14.2 °F 63% 30.19 in 10.0 mi WNW 5.8 mph - N/A   Clear